Le nostre stazioni meteo in Italia

Pubblicità
Il mio iltempo24.it
Kleine Brogel, Belgio (6479): Temperatura & dewpoint: 22.03.2017 12:00:00 - 28.03.2017 12:00:00 (CEST)Kleine Brogel, Belgio (6479): velocità del vento & gusts: 22.03.2017 12:00:00 - 28.03.2017 12:00:00 (CEST)Kleine Brogel, Belgio (6479): direzione del vento: 22.03.2017 12:00:00 - 28.03.2017 12:00:00 (CEST)Kleine Brogel, Belgio (6479): reduced air pressure: 22.03.2017 12:00:00 - 28.03.2017 12:00:00 (CEST)Kleine Brogel, Belgio (6479): visibility: 22.03.2017 12:00:00 - 28.03.2017 12:00:00 (CEST)Kleine Brogel, Belgio (6479): precipitazioni: 22.03.2017 12:00:00 - 28.03.2017 12:00:00 (CEST)
Data & Tempo tt [°C] td [°C] ff [km/h] ff [kn] fx [km/h] fx [kn] dd ppp [hPa] vv [km] rr [mm]
28.03.2017 12:00:00 - - - - - - - - - -
28.03.2017 11:00:00 15,6 3,6 7 4 - - SSO 1021,7 20 -
28.03.2017 10:00:00 13,3 3,9 11 6 18 10 SO 1021,3 20 -
28.03.2017 09:00:00 9,7 2,7 7 4 11 6 SSO 1021,2 20 -
28.03.2017 08:00:00 4,7 1,1 5 3 - - SSO 1021,2 10 -
28.03.2017 07:00:00 5,9 0,8 5 3 11 6 SSO 1020,8 10 -
28.03.2017 06:00:00 6,8 0,6 4 2 7 4 - 1020,7 10 -
28.03.2017 05:00:00 5,4 0,1 4 2 - - - 1020,8 10 -
28.03.2017 04:00:00 5,5 0,3 4 2 11 6 - 1021,0 10 -
28.03.2017 03:00:00 4,4 0,4 2 1 4 2 - 1021,2 10 -
28.03.2017 02:00:00 5,9 0,3 2 1 - - - 1021,5 10 1,7
28.03.2017 01:00:00 5,0 -0,4 2 1 4 2 - 1021,3 10 -
28.03.2017 00:00:00 5,5 -0,4 2 1 0 0 - 1021,5 10 -
27.03.2017 23:00:00 6,8 0,1 0 0 - - N 1021,6 10 -
27.03.2017 22:00:00 8,5 0,6 2 1 4 2 - 1021,5 10 -
27.03.2017 21:00:00 10,6 -0,3 4 2 4 2 - 1021,2 20 -
27.03.2017 20:00:00 14,3 -1,2 4 2 - - - 1020,7 20 -
27.03.2017 19:00:00 16,4 -2,1 7 4 22 12 E 1020,6 20 -
27.03.2017 18:00:00 17,3 -1,5 11 6 25 14 E 1020,7 20 -
27.03.2017 17:00:00 17,3 -1,6 11 6 - - E 1021,2 20 -
27.03.2017 16:00:00 16,9 -0,5 14 8 29 16 E 1021,7 20 -
27.03.2017 15:00:00 16,8 0,3 14 8 32 18 E 1022,3 20 -
27.03.2017 14:00:00 15,7 -1,3 14 8 - - ESE 1023,2 20 -
27.03.2017 13:00:00 15,6 -0,1 11 6 25 14 E 1023,7 20 -
27.03.2017 12:00:00 14,0 0,8 11 6 22 12 E 1024,2 20 -
27.03.2017 11:00:00 12,1 1,6 7 4 - - E 1024,5 20 -
27.03.2017 10:00:00 9,8 1,8 7 4 11 6 E 1024,5 20 -
27.03.2017 09:00:00 6,7 2,2 4 2 11 6 - 1024,5 15 -
27.03.2017 08:00:00 3,7 1,5 4 2 - - - 1024,2 12 -
27.03.2017 07:00:00 3,0 1,2 2 1 4 2 - 1023,8 10 -
27.03.2017 06:00:00 1,1 -0,1 4 2 4 2 - 1023,7 10 -
27.03.2017 05:00:00 1,6 0,5 4 2 - - - 1023,8 15 -
27.03.2017 04:00:00 2,2 0,6 4 2 4 2 - 1024,0 15 -
27.03.2017 03:00:00 2,7 0,7 4 2 4 2 - 1024,0 15 -
27.03.2017 02:00:00 2,9 0,4 4 2 - - - 1024,2 15 1,5
27.03.2017 01:00:00 4,4 0,8 4 2 4 2 - 1024,2 15 -
27.03.2017 00:00:00 5,6 0,6 4 2 11 6 - 1024,4 15 -
26.03.2017 23:00:00 7,3 1,1 8 4 - - NE 1024,4 15 -
26.03.2017 22:00:00 7,9 1,8 7 4 11 6 NNE 1024,4 15 -
26.03.2017 21:00:00 9,7 1,9 11 6 11 6 NE 1024,0 15 -
26.03.2017 20:00:00 11,3 2,4 11 6 - - NE 1023,7 15 -
26.03.2017 19:00:00 13,1 2,6 14 8 25 14 NE 1023,3 15 -
26.03.2017 18:00:00 13,8 2,8 18 10 29 16 ENE 1023,5 12 -
26.03.2017 17:00:00 14,7 2,9 18 10 - - NE 1023,6 12 -
26.03.2017 16:00:00 15,3 3,2 18 10 29 16 NE 1023,7 12 -
26.03.2017 15:00:00 14,3 3,1 11 6 22 12 ENE 1024,0 12 -
26.03.2017 14:00:00 13,0 2,7 14 8 - - ENE 1024,7 12 -
26.03.2017 13:00:00 12,2 3,4 14 8 22 12 ENE 1025,2 10 -
26.03.2017 12:00:00 10,1 3,4 14 8 22 12 ENE 1025,5 10 -
26.03.2017 11:00:00 7,7 4,3 11 6 - - ENE 1025,7 4,0 -
26.03.2017 10:00:00 5,9 3,9 18 10 25 14 NE 1025,9 6 -
26.03.2017 09:00:00 5,0 3,3 11 6 22 12 NE 1025,2 15 -
26.03.2017 08:00:00 4,0 2,9 11 6 - - ENE 1025,0 15 -
26.03.2017 07:00:00 4,3 2,9 11 6 22 12 ENE 1025,0 15 -
26.03.2017 06:00:00 4,9 2,9 14 8 22 12 NE 1024,7 15 -
26.03.2017 05:00:00 5,0 2,3 15 8 - - NE 1024,7 20 -
26.03.2017 04:00:00 5,4 1,2 11 6 22 12 NE 1024,7 20 -
26.03.2017 03:00:00 6,3 0,6 14 8 29 16 ENE 1024,7 20 -
26.03.2017 02:00:00 7,0 -0,4 14 8 - - ENE 1025,0 20 1,6
26.03.2017 01:00:00 7,6 -2,3 18 10 29 16 NE 1025,2 20 -
26.03.2017 00:00:00 8,9 -2,4 22 12 32 18 NE 1025,0 20 -
25.03.2017 23:00:00 9,6 -2,9 22 12 - - NE 1025,2 20 -
25.03.2017 22:00:00 10,3 -4,1 14 8 32 18 ENE 1025,4 20 -
25.03.2017 21:00:00 11,1 -4,7 18 10 29 16 NE 1025,0 20 -
25.03.2017 20:00:00 12,4 -5,4 22 12 - - NE 1024,7 20 -
25.03.2017 19:00:00 13,5 -4,4 25 14 47 25 NE 1024,5 20 -
25.03.2017 18:00:00 15,0 -3,1 29 16 43 23 NE 1025,0 20 -
25.03.2017 17:00:00 15,7 -3,1 29 16 - - ENE 1025,7 20 -
25.03.2017 16:00:00 16,2 -3,8 25 14 43 23 ENE 1026,4 20 -
25.03.2017 15:00:00 15,5 -3,4 29 16 43 23 ENE 1027,4 20 -
25.03.2017 14:00:00 15,1 -1,0 25 14 - - ENE 1028,2 20 -
25.03.2017 13:00:00 14,1 -0,1 29 16 43 23 NE 1029,2 20 -
25.03.2017 12:00:00 12,8 1,3 22 12 32 18 ENE 1029,7 20 -
25.03.2017 11:00:00 10,9 1,4 18 10 - - ENE 1030,4 20 -
25.03.2017 10:00:00 8,2 1,2 14 8 22 12 ENE 1030,7 19 -
25.03.2017 09:00:00 5,5 1,0 14 8 22 12 NE 1030,5 17 -
25.03.2017 08:00:00 3,9 0,7 14 8 - - ENE 1030,7 15 -
25.03.2017 07:00:00 4,0 0,7 14 8 22 12 NE 1030,5 15 -
25.03.2017 06:00:00 4,0 0,6 14 8 22 12 NE 1030,7 20 -
25.03.2017 05:00:00 4,5 0,7 15 8 - - NE 1030,7 20 -
25.03.2017 04:00:00 5,5 1,0 14 8 25 14 NE 1030,9 20 -
25.03.2017 03:00:00 6,1 1,2 14 8 22 12 NE 1031,2 20 -
25.03.2017 02:00:00 6,5 1,2 14 8 - - NE 1031,4 20 1,4
25.03.2017 01:00:00 7,5 1,4 11 6 22 12 NE 1031,4 20 -
25.03.2017 00:00:00 8,4 1,5 16 9 32 18 NE 1031,2 10 -
24.03.2017 23:00:00 9,0 1,5 18 10 - - NE 1030,7 20 -
24.03.2017 22:00:00 9,6 1,9 14 8 22 12 NE 1030,2 20 -
24.03.2017 21:00:00 10,1 2,4 14 8 25 14 NE 1029,7 20 -
24.03.2017 20:00:00 11,6 2,6 18 10 - - NE 1029,5 20 -
24.03.2017 19:00:00 12,8 2,6 22 12 36 19 NE 1028,7 20 -
24.03.2017 18:00:00 14,1 3,2 25 14 36 19 NE 1028,0 20 -
24.03.2017 17:00:00 14,5 3,6 18 10 - - ENE 1027,7 20 -
24.03.2017 16:00:00 13,8 3,4 18 10 32 18 ENE 1028,2 20 -
24.03.2017 15:00:00 12,9 3,4 21 11 29 16 ENE 1028,5 10 -
24.03.2017 14:00:00 12,2 3,6 22 12 - - ENE 1028,7 18 -
24.03.2017 13:00:00 10,7 3,3 18 10 29 16 E 1028,9 18 -
24.03.2017 12:00:00 - - - - - - - - - -
24.03.2017 11:00:00 - - - - - - - - - -
24.03.2017 10:00:00 7,3 4,2 14 8 25 14 ENE 1027,7 7 -
24.03.2017 09:00:00 6,5 4,3 18 10 29 16 ENE 1026,4 6 -
24.03.2017 08:00:00 5,5 4,2 18 10 - - ENE 1025,2 3,0 -
24.03.2017 07:00:00 5,2 4,2 18 10 25 14 ENE 1024,7 9 -
24.03.2017 06:00:00 5,0 4,1 14 8 22 12 NE 1024,9 9 -
24.03.2017 05:00:00 - - - - - - - - - -
24.03.2017 04:00:00 5,7 4,4 14 8 18 10 NE 1024,2 9 -
24.03.2017 03:00:00 5,9 4,2 13 7 22 12 NE 1023,7 9 -
24.03.2017 02:00:00 6,5 4,2 15 8 - - NE 1022,8 10 1,5
24.03.2017 01:00:00 7,1 4,2 14 8 29 16 ENE 1022,2 18 -
24.03.2017 00:00:00 8,1 4,0 22 12 32 18 NE 1020,7 18 -
23.03.2017 23:00:00 9,0 3,6 22 12 - - NE 1020,2 10 -
23.03.2017 22:00:00 9,8 3,5 18 10 29 16 NE 1019,3 18 -
23.03.2017 21:00:00 10,8 3,3 18 10 29 16 NE 1018,6 18 -
23.03.2017 20:00:00 11,8 3,5 14 8 - - NE 1017,6 18 -
23.03.2017 19:00:00 14,0 2,8 22 12 29 16 NE 1016,2 18 -
23.03.2017 18:00:00 14,8 3,0 18 10 29 16 ENE 1016,2 18 -
23.03.2017 17:00:00 15,1 3,1 22 12 - - ENE 1015,8 18 -
23.03.2017 16:00:00 15,0 2,8 18 10 29 16 ENE 1015,6 18 -
23.03.2017 15:00:00 14,8 3,7 18 10 29 16 ENE 1015,7 18 -
23.03.2017 14:00:00 13,1 3,2 18 10 - - ENE 1015,7 18 -
23.03.2017 13:00:00 12,6 3,9 22 12 36 19 ENE 1015,7 18 -
23.03.2017 12:00:00 10,7 4,2 14 8 29 16 E 1015,7 18 -
23.03.2017 11:00:00 9,4 4,5 14 8 - - E 1015,8 18 -
23.03.2017 10:00:00 7,6 4,2 13 7 22 12 E 1015,5 10 -
23.03.2017 09:00:00 4,9 2,9 11 6 14 8 ENE 1015,2 12 -
23.03.2017 08:00:00 2,9 1,7 11 6 - - ENE 1014,8 8 -
23.03.2017 07:00:00 2,2 1,3 7 4 11 6 E 1014,3 6 -
23.03.2017 06:00:00 0,1 -0,4 4 2 7 4 - 1014,3 7 -
23.03.2017 05:00:00 0,6 0,0 4 2 - - - 1014,6 7 -
23.03.2017 04:00:00 2,1 1,4 4 2 4 2 - 1014,6 8 -
23.03.2017 03:00:00 2,0 1,0 4 2 11 6 - 1014,2 12 -
23.03.2017 02:00:00 3,9 2,1 4 2 - - - 1014,5 12 1,2
23.03.2017 01:00:00 2,7 1,3 4 2 7 4 - 1014,5 12 -
23.03.2017 00:00:00 4,4 1,9 4 2 7 4 - 1014,2 20 -
22.03.2017 23:00:00 5,3 2,1 4 2 - - - 1014,1 20 -
22.03.2017 22:00:00 7,0 2,4 4 2 14 8 - 1014,0 20 -
22.03.2017 21:00:00 8,2 2,8 4 2 14 8 - 1013,7 20 -
22.03.2017 20:00:00 9,1 2,5 9 5 - - E 1013,2 10 -
22.03.2017 19:00:00 11,1 -0,9 11 6 22 12 ESE 1012,6 20 -
22.03.2017 18:00:00 10,8 0,7 7 4 22 12 E 1012,6 20 -
22.03.2017 17:00:00 12,3 0,1 11 6 - - ESE 1012,6 20 -
22.03.2017 16:00:00 12,1 0,7 11 6 22 12 SSE 1012,7 20 -
22.03.2017 15:00:00 11,1 1,5 11 6 25 14 S 1013,1 20 -
22.03.2017 14:00:00 10,6 1,6 11 6 - - S 1013,6 20 -
22.03.2017 13:00:00 11,1 0,8 14 8 25 14 S 1013,7 20 -
22.03.2017 12:00:00 - - - - - - - - - -

tt = Temperatura
td = dewpoint
ff = velocità del vento
fx = gusts
dd = direzione del vento
ppp = reduced air pressure
vv = visibility
rr = precipitazioni

Stazioni seguenti

WeatherPro
AMSI
MeteoEarth